Location: Diati
(11.8376°N, 2.5966°E)
Time: 18:04:56
(UTC+00:00)

Cosmos 1125 Rocket - Pass Details

Date: 21 September 2020
Orbit: 757 x 780 km, 74.0° (Epoch: 19 October)

Event Time Altitude Azimuth Distance (km) Brightness Sun altitude
Rises 18:37:48 0° 189° (S) 3,234 6.8 -13.5°
Reaches altitude 10° 18:40:10 10° 188° (S) 2,311 6.0 -14.1°
Maximum altitude 18:45:25 78° 102° (ESE) 794 3.4 -15.3°
Drops below altitude 10° 18:50:41 10° 17° (NNE) 2,322 5.9 -16.6°
Sets 18:53:04 0° 15° (NNE) 3,251 6.6 -17.2°
